This is the latest recevied weather packets stored in our database for station/object G6UYG-13. If no packets are shown the sender has not sent any weather packets the latest 10 day(s).
| Time | Temp. | Humidity | Pressure | Rain* | Wind** | Luminosity | Snow |
|---|---|---|---|---|---|---|---|
| 1777798845 | 13.33° C | 87% | 1006.9 hPa | 0 mm | - | 211 W/m² | - |
| 1777798425 | 12.78° C | 86% | 1007 hPa | 0 mm | - | 274 W/m² | - |
| 1777798005 | 13.33° C | 87% | 1007 hPa | 0 mm | - | 257 W/m² | - |
| 1777797585 | 13.33° C | 88% | 1007 hPa | 0 mm | - | 265 W/m² | - |
| 1777797165 | 12.78° C | 89% | 1006.9 hPa | 0 mm | - | 262 W/m² | - |
| 1777796745 | 12.78° C | 90% | 1007 hPa | 0 mm | - | 204 W/m² | - |
| 1777796325 | 12.78° C | 91% | 1007 hPa | 0 mm | - | 359 W/m² | - |
| 1777795905 | 12.22° C | 92% | 1007.1 hPa | 0 mm | - | 251 W/m² | - |
| 1777795485 | 12.22° C | 92% | 1007.1 hPa | 0 mm | - | 315 W/m² | - |
| 1777795065 | 11.67° C | 92% | 1007.2 hPa | 0 mm | - | 253 W/m² | - |
| 1777794645 | 11.67° C | 93% | 1007.2 hPa | 0 mm | - | 204 W/m² | - |
| 1777794225 | 11.67° C | 94% | 1007.2 hPa | 0 mm | - | 204 W/m² | - |
| 1777793805 | 11.67° C | 94% | 1007.3 hPa | 0 mm | - | 304 W/m² | - |
| 1777793385 | 11.11° C | 94% | 1007.4 hPa | 0 mm | - | 218 W/m² | - |
| 1777792965 | 11.11° C | 94% | 1007.4 hPa | 0 mm | - | 160 W/m² | - |
| 1777792545 | 11.11° C | 94% | 1007.4 hPa | 0 mm | - | 128 W/m² | - |
| 1777792125 | 11.11° C | 94% | 1007.4 hPa | 0 mm | - | 97 W/m² | - |
| 1777791705 | 10.56° C | 94% | 1007.5 hPa | 0 mm | - | 93 W/m² | - |
| 1777791286 | 10.56° C | 94% | 1007.5 hPa | 0 mm | - | 63 W/m² | - |
| 1777790866 | 10.56° C | 94% | 1007.4 hPa | 0 mm | - | 79 W/m² | - |
| 1777790446 | 10.56° C | 94% | 1007.3 hPa | 0 mm | - | 79 W/m² | - |
| 1777790026 | 10.56° C | 94% | 1007.3 hPa | 0 mm | - | 74 W/m² | - |
| 1777789606 | 10.56° C | 94% | 1007.2 hPa | 0 mm | - | 53 W/m² | - |
| 1777789186 | 10.56° C | 94% | 1007.2 hPa | 0 mm | - | 56 W/m² | - |
| 1777788766 | 10.56° C | 94% | 1007.2 hPa | 0 mm | - | 37 W/m² | - |
* Rain latest hour (hover to see other rain measurements)
** Current wind speed in m/s (hover to see current wind gust speed)